Regional Weather Roundup
Issued by NWS

Home | Current Version | Previous Version | Graphics & Text | Print | Product List | Glossary Off
Versions: 1 2 3 4 5 6 7 8 9 10 11 12 13 14 15 16 17 18 19 20 21 22 23 24 25 26 27 28 29 30 31 32 33 34 35 36 37 38 39 40 41 42 43 44 45 46 47 48 49 50

000
ASUS43 KMKX 221811
RWRWI

WISCONSIN REGIONAL WEATHER ROUNDUP
NATIONAL WEATHER SERVICE MILWAUKEE/SULLIVAN WI
1200 PM CST WED FEB 22 2017

NOTE: "FAIR" INDICATES FEW OR NO CLOUDS BELOW 12,000 FEET WITH NO
SIGNIFICANT WEATHER AND/OR OBSTRUCTIONS TO VISIBILITY.

WIZ001-002-006>008-014>016-023>028-221900-
NORTHWEST WISCONSIN

CITY           SKY/WX    TMP DP  RH WIND       PRES   REMARKS
SUPERIOR ARPT  PTSUNNY   44  37  78 NE5       29.62F
6HR MIN TEMP:  31; 6HR MAX TEMP:  44;

ASHLAND        CLOUDY    42  36  79 NE8       29.62S
6HR MIN TEMP:  33; 6HR MAX TEMP:  46;

HAYWARD        LGT RAIN  44  41  89 CALM      29.60F
6HR MIN TEMP:  30; 6HR MAX TEMP:  44; 6HR PCP: TRACE;

SIREN          DRIZZLE   41  40  98 NE5       29.58F
6HR MIN TEMP:  32; 6HR MAX TEMP:  41; 6HR PCP:  0.01;

CUMBERLAND     PTSUNNY   43  41  93 NE3       29.59F
RICE LAKE      MOSUNNY   47  42  80 CALM      29.60F
6HR MIN TEMP:  32; 6HR MAX TEMP:  47;

CHETEK         MOSUNNY   48  41  75 CALM      29.59F
6HR MIN TEMP:  33; 6HR MAX TEMP:  51;

LADYSMITH      CLOUDY    50  40  69 NW5       29.61F
6HR MIN TEMP:  36; 6HR MAX TEMP:  50;

EAU CLAIRE     MOSUNNY   53  39  59 VRB3      29.56F
6HR MIN TEMP:  35; 6HR MAX TEMP:  54;

MENOMONIE      CLOUDY    53  40  61 CALM      29.58F
6HR MIN TEMP:  36; 6HR MAX TEMP:  53;

NEW RICHMOND   CLOUDY    50  42  73 CALM      29.57F
6HR MIN TEMP:  35; 6HR MAX TEMP:  50;

OSCEOLA        LGT RAIN  48  48 100 E7        29.58F
6HR MIN TEMP:  34; 6HR MAX TEMP:  48;

$$

WIZ003>005-009-010-017-018-221900-
NORTH CENTRAL WISCONSIN

CITY           SKY/WX    TMP DP  RH WIND       PRES   REMARKS
MANITOWISH WTR CLOUDY    46  41  84 CALM      29.59R
6HR MIN TEMP:  30; 6HR MAX TEMP:  46;

ARBOR VITAE    CLOUDY    49  42  74 N5          N/A
6HR MIN TEMP:  32; 6HR MAX TEMP:  50;

WOODRUFF       CLOUDY    49  42  74 N5          N/A
6HR MIN TEMP:  32; 6HR MAX TEMP:  50;

RHINELANDER    PTSUNNY   53  41  63 CALM      29.57F
6HR MIN TEMP:  36; 6HR MAX TEMP:  53;

EAGLE RIVER    CLOUDY    48  37  64 CALM      29.57F
6HR MIN TEMP:  30; 6HR MAX TEMP:  48;

LAND O LAKES   CLOUDY    50  39  67 CALM      29.60R
6HR MIN TEMP:  31; 6HR MAX TEMP:  50;

PHILLIPS       CLOUDY    48  40  74 NW3       29.58F
6HR MIN TEMP:  30; 6HR MAX TEMP:  48;

TOMAHAWK       CLOUDY    52  38  60 CALM      29.58F
6HR MIN TEMP:  29; 6HR MAX TEMP:  52;

MEDFORD        CLOUDY    49  38  66 S3        29.56F
6HR MIN TEMP:  36; 6HR MAX TEMP:  49;

MERRILL        NOT AVBL
$$

WIZ029-030-035-036-043>047-221900-
CENTRAL WISCONSIN

CITY           SKY/WX    TMP DP  RH WIND       PRES   REMARKS
WAUSAU         PTSUNNY   52  37  56 S6        29.56F
6HR MIN TEMP:  38; 6HR MAX TEMP:  53; 6HR PCP: TRACE;

MOSINEE        PTSUNNY   52  37  58 SW7       29.59F
MARSHFIELD     MOSUNNY   53  38  56 W7        29.56F
6HR MIN TEMP:  39; 6HR MAX TEMP:  53;

STEVENS POINT  PTSUNNY   54  36  50 W5        29.58F
6HR MIN TEMP:  31; 6HR MAX TEMP:  55;

WAUPACA        MOSUNNY   65  41  42 SW7       29.58F
6HR MIN TEMP:  35; 6HR MAX TEMP:  65;

WAUTOMA        SUNNY     65  44  46 S9        29.57
6HR MIN TEMP:  29; 6HR MAX TEMP:  65;

WISC RAPIDS    MOSUNNY   58  37  45 W9        29.59F
6HR MIN TEMP:  38; 6HR MAX TEMP:  59; 6HR PCP: TRACE;

CAMP DOUGLAS   PTSUNNY   61  39  44 W12       29.58F
$$

WIZ011>013-019>022-031-037>040-048>050-221900-
NORTHEAST WISCONSIN

CITY           SKY/WX    TMP DP  RH WIND       PRES   REMARKS
ANTIGO         MOSUNNY   48  40  73 NE5       29.57F
6HR MIN TEMP:  32; 6HR MAX TEMP:  50;

SHAWANO        MOSUNNY   57  44  62 CALM      29.59F
6HR MIN TEMP:  36; 6HR MAX TEMP:  58;

OCONTO         SUNNY     56  44  62 S5        29.59F
6HR MIN TEMP:  29; 6HR MAX TEMP:  56;

STURGEON BAY   MOSUNNY   55  45  68 SE7       29.61F
6HR MIN TEMP:  34; 6HR MAX TEMP:  55;

GREEN BAY      SUNNY     58  50  75 SW10      29.59F
6HR MIN TEMP:  39; 6HR MAX TEMP:  58; 6HR PCP: TRACE;

MANITOWOC      SUNNY     52  46  80 S9        29.61F
6HR MIN TEMP:  34; 6HR MAX TEMP:  54; 6HR PCP: TRACE;

APPLETON       PTSUNNY   57  45  62 SW15      29.59F
CLINTONVILLE   MOSUNNY   57  43  58 W3        29.58F
OSHKOSH        SUNNY     61  49  64 SW16G24   29.58F
6HR MIN TEMP:  43; 6HR MAX TEMP:  61;

$$

WIZ032>034-041-042-053>061-221900-
SOUTHWEST WISCONSIN

CITY           SKY/WX    TMP DP  RH WIND       PRES   REMARKS
LA CROSSE      CLOUDY    58  37  45 SE10      29.58F
6HR MIN TEMP:  41; 6HR MAX TEMP:  58; 6HR PCP: TRACE;

SPARTA         CLOUDY    59  37  44 W7        29.60F
6HR MIN TEMP:  35; 6HR MAX TEMP:  59;

VIROQUA        CLOUDY    59  38  45 SW13      29.61S
6HR MIN TEMP:  45; 6HR MAX TEMP:  60;

BOSCOBEL       MOSUNNY   64  41  42 SW13G18   29.60F
6HR MIN TEMP:  31; 6HR MAX TEMP:  65;

PRAIRIE DU CHI CLOUDY    62  38  40 S8        29.60F
6HR MIN TEMP:  40; 6HR MAX TEMP:  62;

PLATTEVILLE    SUNNY     64  48  55 S21       29.64F
$$

WIZ056-057-062-063-064-067-068-221900-
SOUTH CENTRAL WISCONSIN

CITY           SKY/WX    TMP DP  RH WIND       PRES   REMARKS
REEDSBURG      SUNNY     64  45  48 SW16G22   29.58F
6HR MIN TEMP:  47; 6HR MAX TEMP:  64;

BARABOO/DELLS  SUNNY     64  42  44 SW14G20   29.58F
6HR MIN TEMP:  49; 6HR MAX TEMP:  64;

LONE ROCK      SUNNY     65  45  48 SW10G18   29.61F
6HR MIN TEMP:  39; 6HR MAX TEMP:  65;

MINERAL POINT  SUNNY     64  48  55 S22       29.62F
MADISON        MOSUNNY   63  47  55 S14       29.62F
6HR MIN TEMP:  45; 6HR MAX TEMP:  64;

MIDDLETON      SUNNY     67  44  43 SW15G23   29.62F
6HR MIN TEMP:  49; 6HR MAX TEMP:  67;

WATERTOWN      SUNNY     62  50  65 S18G25    29.63F
6HR MIN TEMP:  49; 6HR MAX TEMP:  63;

MONROE         SUNNY     61  52  72 S20G28    29.65F
JANESVILLE     MOSUNNY   64  52  63 SW16G25   29.67F
$$

WIZ051-052-058>065-066-070>072-221900-
SOUTHEAST WISCONSIN

CITY           SKY/WX    TMP DP  RH WIND       PRES   REMARKS
MILWAUKEE      MOSUNNY   65  52  62 SW17G28   29.67F
6HR MIN TEMP:  51; 6HR MAX TEMP:  65;

WAUKESHA       SUNNY     61  50  67 SW21G29   29.67F
MILWAUKEE/TIMM SUNNY     64  48  55 SW17      29.67F
RACINE         MOSUNNY   64  53  67 SW16G28   29.69F
6HR MIN TEMP:  51; 6HR MAX TEMP:  64;

KENOSHA        MOSUNNY   63  53  70 SW20G29   29.69F
6HR MIN TEMP:  50; 6HR MAX TEMP:  63;

FOND DU LAC    SUNNY     63  46  54 SW18G29   29.59F
6HR MIN TEMP:  48; 6HR MAX TEMP:  63;

SHEBOYGAN      SUNNY     66  48  52 SW17G24   29.61F
6HR MIN TEMP:  44; 6HR MAX TEMP:  66;

WEST BEND      SUNNY     64  45  48 SW18G24   29.62F
JUNEAU         SUNNY     62  49  62 S17G25    29.63F
6HR MIN TEMP:  44; 6HR MAX TEMP:  62;

$$

LSZ147-162-221900-
LAKE SUPERIOR

STATION/POSITION TIME  TEMP    WIND        PRES    WAVE
                       AIR SEA DIR/SP/G            HT/PER
                 (UTC) (F)     (DEG/KT/KT) (MB)    (FT/S)
DEVILS ISLAND    1800   35      30/  9/  9 1004.0F
PORT WING        1740   37      40/  4/  4 1003.7S
SAXON HARBOR     1730   36     310/  4/  4 1003.4R
$$

LMZ867-665-643>646-221900-
LAKE MICHIGAN

STATION/POSITION TIME  TEMP    WIND        PRES    WAVE
                       AIR SEA DIR/SP/G            HT/PER
                 (UTC) (F)     (DEG/KT/KT) (MB)    (FT/S)
CHAMBERS ISLAND  1740   51     180/  5/  9 1002.7S
NORTHPORT PIER   1740   45     190/  4/ 11 1003.0F
SISTER BAY       1735   53     150/  9/ 11   N/A
KEWAUNEE LAKESHO 1748   38     170/ 10/ 11 1002.8F
SHEBOYGAN LAKESH 1800   41     170/ 20/ 22 1003.0F
P



USA.gov is the U.S. government's official web portal to all federal, state and local government web resources and services.